Temp
9 9 10 10 10 9 9 9 9 9 9 9 9 9 9 9 9 10 10 11 12 15 15 15 15 15 15 15 16 16 16 17 18 18 19 18 18 21 22 24 22 21 21 21 21
9 9 10 10 9 9 9 9 9 8 8 8 9 9 9 9 9 9 10 11 12 13 14 14 13 14 14 15 15 16 17 17 20 20 17 17 18 18 22 21 19 19 19 20 21
9 10 9 9 9 9 9 9 8 8 8 8 9 9 8 8 9 10 11 11 12 13 13 14 14 14 15 15 15 15 17 18 20 20 16 16 17 19 19 23 20 19 19 19 19
9 9 9 9 9 9 8 8 8 8 8 8 8 8 8 8 9 11 12 12 12 12 13 14 13 13 14 14 17 16 18 19 20 19 15 16 17 17 20 22 21 19 19 18 18
9 9 8 8 8 8 8 8 8 8 8 8 8 8 8 7 9 12 11 12 13 12 12 13 12 13 14 15 17 17 18 19 18 17 16 16 15 16 20 21 20 19 19 18 17
9 9 8 8 8 8 8 8 8 8 8 8 8 8 8 7 11 11 11 13 13 13 12 13 13 14 15 16 16 17 18 18 17 18 18 16 16 17 21 20 21 20 19 19 18
9 8 8 8 8 7 8 8 8 7 7 7 8 8 8 8 11 11 11 12 13 13 13 13 15 14 14 16 17 17 16 17 18 18 19 18 17 17 21 20 21 20 20 22 21
8 8 8 8 7 7 7 8 7 7 7 8 8 8 7 10 10 11 11 12 13 13 13 14 15 13 15 16 15 16 16 15 17 18 19 19 17 19 19 19 20 20 20 19 19
7 8 7 7 7 7 8 8 8 8 8 8 8 8 7 10 11 11 10 11 11 11 12 13 14 14 15 13 14 15 14 15 17 17 18 18 17 19 19 18 18 18 18 18 18
7 7 7 7 8 7 8 9 9 9 8 8 8 8 9 9 11 10 10 10 9 11 11 12 12 13 12 13 14 14 15 16 17 17 17 17 16 19 19 17 17 17 17 18 18
7 7 7 7 8 9 9 9 7 7 9 8 9 9 9 10 10 9 9 10 9 11 12 13 12 12 13 14 15 15 15 16 17 18 18 17 17 18 18 18 17 16 16 17 18
7 6 7 7 9 9 9 7 7 8 7 10 9 9 9 8 10 9 9 9 11 12 13 12 13 13 14 15 15 15 15 15 17 18 17 16 16 16 17 17 17 17 16 16 18
6 6 6 7 8 9 8 8 8 8 7 9 9 9 8 8 9 9 9 10 11 12 12 13 13 14 15 14 14 15 15 14 16 16 17 16 15 16 16 16 17 17 17 16 16
6 6 6 7 8 8 8 8 8 8 5 9 10 9 9 8 9 9 8 11 10 12 14 13 14 14 14 14 14 14 15 16 16 15 15 16 13 15 15 16 15 15 14 15 15
6 6 6 7 8 8 8 8 8 8 10 9 9 9 9 9 9 9 9 11 11 12 13 12 13 13 14 14 15 15 16 15 15 14 14 15 14 13 15 14 15 13 13 13 12
6 6 7 8 7 8 8 8 8 6 10 8 8 9 10 9 10 10 10 11 13 13 11 11 11 11 12 13 15 15 14 13 12 13 12 14 13 12 13 14 15 13 13 12 12
7 8 8 8 8 8 8 7 6 8 9 10 11 11 11 11 10 9 12 12 12 11 11 10 10 11 11 13 14 15 13 11 12 12 11 13 13 15 15 15 14 14 13 12 12
9 10 9 8 8 8 8 6 8 10 8 11 12 11 11 11 11 12 12 12 12 11 10 11 11 11 11 12 12 14 13 10 12 11 12 13 12 15 14 14 14 14 14 13 12
9 9 9 9 8 8 6 5 8 7 8 10 13 12 11 11 11 12 13 12 12 12 11 11 10 10 11 12 12 13 12 13 11 11 8 12 13 15 14 14 13 13 13 12 12
9 8 8 9 8 8 6 9 9 10 11 12 13 14 13 11 12 12 12 13 13 13 12 11 10 11 11 11 11 12 13 13 8 10 12 12 12 14 14 13 13 13 13 12 12
8 7 8 8 8 6 6 7 11 12 12 13 13 14 15 13 12 13 12 14 14 12 12 11 11 11 11 11 12 11 13 12 11 9 10 11 12 13 14 15 14 14 13 12 12
5 6 8 8 9 5 5 9 13 14 13 13 13 14 14 15 14 13 13 13 13 13 12 13 10 11 12 12 12 12 12 13 12 10 8 8 11 14 13 13 14 14 14 13 12
4 5 8 8 8 6 11 13 13 13 14 14 14 14 14 14 13 13 12 13 13 14 13 13 9 8 10 11 12 11 11 13 11 10 7 9 12 13 12 13 14 13 13 13 11
4 5 4 6 6 9 10 13 13 13 13 14 14 14 14 14 14 12 12 13 13 13 14 13 11 11 10 12 10 9 11 12 11 9 13 10 14 14 13 13 13 14 13 12 11
3 5 6 4 7 7 8 11 14 13 13 14 13 14 13 13 14 12 12 12 13 13 12 12 8 6 11 12 11 11 12 11 10 12 12 14 13 14 13 14 14 14 13 12 11
3 3 3 4 5 7 9 10 12 12 13 12 12 12 12 13 13 12 12 11 12 12 12 9 7 7 11 12 11 9 11 11 12 12 12 12 12 12 13 13 13 13 12 12 11
3 4 3 5 6 9 9 10 11 10 13 13 12 12 13 13 13 13 12 12 12 11 10 10 7 6 7 10 10 10 10 10 11 11 13 11 14 14 13 13 12 11 11 11 10
Height
811 806 802 799 795 791 788 787 785 784 784 784 785 786 786 786 786 786 784 784 786 787 790 793 796 798 799 799 800 804 820 822 819 821 818 811 814 795 788 786 787 789 790 792 798
807 804 799 794 790 787 783 781 779 780 780 781 782 784 784 784 784 780 781 782 783 786 790 789 794 797 799 798 801 805 810 808 800 801 818 817 814 814 803 796 798 795 793 794 799
805 801 797 791 786 782 778 776 773 775 776 778 780 781 782 782 783 772 776 779 782 784 789 789 792 796 798 797 798 805 800 801 800 802 814 819 813 812 812 806 797 798 798 797 799
804 798 794 789 782 777 775 772 772 773 774 776 778 779 780 781 780 768 770 775 778 781 785 787 792 796 797 797 792 802 796 796 798 805 821 824 818 817 809 802 791 791 793 797 799
802 797 792 786 779 775 774 773 774 773 774 775 776 778 778 780 771 765 767 769 768 776 778 782 788 790 792 791 791 798 794 796 799 811 815 824 829 823 810 799 793 793 796 798 800
800 795 791 784 778 775 776 776 776 775 774 774 775 776 778 780 767 767 767 765 764 770 772 780 783 784 788 788 792 792 795 798 805 811 813 826 830 829 807 801 797 795 797 799 799
798 794 789 785 781 778 777 777 776 775 774 774 775 775 776 771 766 765 770 765 764 768 771 779 781 784 784 789 787 789 800 804 805 807 808 812 826 828 806 804 799 798 796 795 798
797 794 789 786 784 781 779 775 774 774 773 773 774 775 773 765 764 766 767 765 765 771 774 778 781 784 783 782 791 796 803 814 803 804 802 804 821 808 807 808 803 799 799 799 798
796 792 790 786 783 780 777 774 771 769 770 771 774 775 772 765 765 765 768 769 769 773 775 780 783 784 783 792 801 799 811 810 804 798 800 803 811 801 796 801 801 801 800 801 800
796 791 788 785 781 778 777 774 774 773 773 772 774 778 770 766 765 765 768 770 775 771 774 779 784 788 791 790 794 798 800 799 798 798 799 803 807 794 794 798 798 798 798 798 797
795 790 786 784 780 777 775 773 777 777 773 774 773 771 769 766 764 767 769 771 774 771 764 771 781 782 784 786 783 788 795 801 797 792 798 803 806 799 793 795 797 798 797 796 795
792 789 783 782 780 777 775 776 779 779 778 770 770 770 771 769 766 768 770 768 761 757 767 779 779 783 785 785 786 789 798 801 793 791 798 803 804 800 795 795 794 792 794 795 796
789 786 783 781 778 779 778 778 777 777 778 772 770 773 776 772 768 768 765 768 762 761 771 773 778 779 784 791 795 795 799 803 800 798 798 804 809 802 794 792 789 789 788 791 795
787 782 779 779 779 778 779 778 777 777 790 774 767 775 776 776 774 776 777 772 772 767 766 777 777 782 787 793 795 802 792 792 799 806 812 802 822 802 794 793 791 790 791 791 793
784 778 777 776 778 776 777 778 778 775 772 778 776 764 776 774 778 774 770 767 769 765 768 783 782 787 790 790 790 796 789 794 798 806 810 811 821 804 794 795 791 791 790 791 793
780 776 776 776 777 776 774 776 780 794 775 783 782 767 768 772 771 770 766 766 762 767 776 787 790 792 795 792 789 789 795 804 809 813 826 810 816 808 797 787 781 786 788 789 792
776 772 773 775 775 775 775 776 790 785 786 780 771 770 763 759 766 774 766 767 772 781 788 797 801 796 797 794 791 792 803 827 825 826 827 809 817 788 779 777 779 782 785 787 789
773 772 772 774 774 775 773 783 792 779 786 775 768 770 773 772 771 765 768 773 773 777 794 797 800 798 799 797 797 797 804 830 823 831 820 809 809 783 774 771 770 773 778 783 788
773 772 771 771 773 773 776 794 790 793 781 772 763 765 770 775 775 772 768 771 772 776 785 791 804 804 802 799 801 802 808 803 822 821 843 809 791 774 771 771 773 776 779 783 786
772 773 773 773 774 774 780 777 779 772 770 764 762 755 762 774 772 773 773 768 770 771 775 787 799 800 799 802 803 800 799 807 834 829 816 804 798 782 774 774 773 777 779 782 785
776 777 775 776 776 779 791 786 768 764 766 764 762 756 753 762 768 768 774 767 767 773 776 785 793 801 798 796 794 799 797 800 805 820 817 810 795 773 769 765 768 773 778 782 785
777 784 777 778 777 786 789 774 760 760 760 763 761 758 756 752 759 763 768 767 765 767 775 774 793 795 793 792 791 792 791 789 799 814 828 829 797 767 767 767 767 771 774 778 782
782 781 777 776 779 786 767 761 759 759 760 760 760 757 755 755 763 763 766 765 763 765 770 770 794 816 800 801 793 794 793 787 795 806 827 820 792 768 769 768 769 772 774 776 781
783 791 785 780 782 777 776 762 761 758 759 759 759 758 756 756 757 764 765 763 763 764 764 767 782 786 793 783 790 800 787 786 792 808 786 798 777 769 771 769 770 770 772 776 779
789 794 792 798 783 784 781 768 758 760 759 758 760 760 762 762 760 764 767 767 765 765 768 772 798 806 783 777 783 781 778 782 791 777 785 768 777 766 768 764 765 767 770 776 780
796 801 800 797 791 785 776 775 765 765 759 762 764 764 763 762 762 765 766 769 767 770 770 781 801 801 780 778 780 793 781 777 774 776 778 776 775 763 761 765 766 767 770 773 776
796 797 798 796 795 781 782 780 775 775 762 762 764 766 764 762 760 759 760 761 762 770 776 781 800 813 812 788 787 792 774 773 771 769 765 775 753 757 760 761 763 766 767 769 772
Wind_Speed
21 20 21 23 24 23 22 21 18 14 14 12 11 11 11 12 14 17 15 13 20 10 7 18 16 11 2 4 3 2 4 13 11 11 3 10 10 6 8 3 4 4 4 11 18
20 22 24 24 22 24 23 21 20 14 12 11 9 10 10 11 12 18 16 16 19 18 12 20 8 7 3 4 3 6 10 14 15 16 4 7 7 12 7 6 6 6 7 18 15
20 25 25 26 27 24 20 19 14 9 9 8 7 9 8 7 3 7 24 22 18 19 18 18 15 7 5 3 4 7 15 6 13 5 6 5 14 10 9 4 4 10 7 5 14
23 24 28 28 27 22 16 13 5 4 4 2 5 6 5 4 7 5 15 16 24 22 20 19 7 9 6 8 6 6 7 15 5 5 5 4 14 14 9 5 7 10 13 6 8
23 24 27 29 24 14 8 7 5 3 2 2 4 4 4 3 7 10 14 14 17 29 26 8 9 6 6 6 9 2 12 15 9 7 11 5 14 19 19 7 2 10 7 9 7
22 23 25 26 17 10 8 7 6 5 2 2 1 4 2 7 9 13 16 17 22 29 23 13 8 7 5 6 11 7 2 7 8 8 15 16 14 17 9 7 2 10 9 7 8
21 21 21 23 16 10 7 6 5 4 2 2 1 4 3 10 6 4 12 7 21 26 12 18 10 6 7 6 4 4 9 4 12 7 7 16 17 19 11 6 3 2 4 5 7
21 19 18 17 15 11 9 6 5 4 3 3 1 3 5 5 10 10 4 9 12 20 15 22 16 6 3 2 5 5 6 5 5 8 6 9 11 16 9 8 7 4 1 4 6
19 18 17 13 13 12 10 9 4 4 3 3 3 3 6 10 1 1 6 2 3 12 14 11 5 4 1 6 5 3 6 7 7 11 6 7 4 7 4 6 9 6 6 5 6
19 17 16 14 10 10 13 9 5 4 4 1 1 2 3 4 6 7 6 4 3 7 8 8 5 5 3 6 14 12 12 11 12 9 6 8 6 4 4 4 9 8 7 6 4
20 18 17 13 8 9 11 2 4 4 2 2 2 4 4 8 1 10 4 3 3 13 7 13 6 13 11 4 4 9 7 10 4 5 5 6 4 10 6 2 5 8 7 6 4
21 18 17 12 7 7 3 4 2 2 4 4 5 2 4 7 3 5 1 2 3 9 12 7 10 5 8 4 3 10 5 6 1 5 5 6 12 9 9 6 7 7 7 7 4
22 19 18 11 5 3 5 3 2 1 0 4 1 3 3 7 5 3 3 1 5 8 13 8 8 9 9 4 4 1 6 4 4 1 1 3 6 6 7 4 6 6 5 5 8
24 21 16 11 2 2 1 2 3 2 3 6 7 3 0 1 4 4 10 2 1 16 11 7 4 9 6 4 4 1 6 7 6 6 6 3 5 7 7 10 8 8 7 7 6
24 21 12 3 1 3 4 2 6 3 5 7 4 9 1 3 2 5 5 5 9 7 5 2 4 9 5 5 5 5 5 7 4 6 5 2 0 6 1 9 9 9 8 7 8
24 16 4 2 4 3 1 3 2 4 5 5 5 7 2 2 3 3 2 3 2 11 10 5 2 4 2 3 3 1 6 8 5 3 1 5 6 5 6 7 6 5 7 9 9
19 6 4 3 3 3 1 3 4 5 3 5 4 2 7 8 4 2 2 3 4 6 4 5 4 1 2 5 3 4 6 2 1 1 5 2 4 12 6 6 7 10 10 9 9
9 2 3 2 2 4 2 3 9 2 2 2 3 5 3 2 6 5 3 4 5 7 4 4 3 1 4 3 4 3 2 5 6 4 4 4 7 7 6 7 7 10 11 8 8
2 3 0 2 4 2 3 5 6 5 4 2 2 2 3 2 2 3 3 2 3 3 5 5 0 1 1 2 0 4 4 3 5 1 3 5 6 8 1 2 7 9 9 8 7
0 0 1 2 3 1 3 2 2 4 3 3 1 2 3 4 3 2 1 2 3 4 4 6 5 2 4 1 4 3 2 2 2 3 4 4 5 5 4 7 8 9 10 8 6
2 2 2 2 2 3 3 3 3 4 4 1 2 1 3 5 7 5 6 4 4 5 4 6 4 4 4 5 8 3 3 2 3 4 3 2 5 4 8 8 12 10 9 8 8
3 2 1 1 1 0 2 4 2 2 0 3 2 2 1 3 3 3 5 2 1 6 6 5 5 4 4 4 4 1 5 4 3 4 1 3 5 3 7 8 9 10 8 7 7
2 1 1 2 2 2 4 1 0 1 1 2 2 2 1 2 4 3 3 2 2 3 6 5 1 3 2 3 1 4 4 3 4 2 5 5 5 4 3 7 6 8 7 7 8
2 2 4 2 0 3 4 3 1 1 2 2 2 3 2 2 4 3 2 2 2 3 4 4 2 4 6 4 5 5 9 7 5 3 4 6 4 2 4 7 6 6 7 8 9
4 2 2 3 2 3 3 5 1 1 2 1 3 2 2 2 2 3 2 2 3 2 3 3 4 2 3 3 3 3 6 12 9 11 8 10 8 6 10 11 11 8 6 7 8
3 3 4 2 4 4 4 4 2 5 3 3 0 7 4 3 4 5 5 3 4 1 2 2 1 2 2 1 0 2 6 8 14 9 9 3 6 6 5 3 5 7 8 8 9
4 3 3 5 6 2 3 4 6 7 1 3 3 2 1 1 1 2 3 4 5 7 4 3 4 3 4 3 3 7 12 13 7 8 11 10 14 2 4 10 8 8 9 10 8
Wind_Direction
335 328 323 320 317 313 300 290 277 267 264 265 268 275 281 276 273 234 224 224 227 202 192 196 211 204 167 155 148 30 142 209 211 222 210 354 351 313 306 89 70 19 129 139 136
332 328 326 325 322 318 308 293 280 266 258 259 265 270 284 287 278 238 224 234 237 245 210 171 182 149 183 191 188 160 197 213 216 205 119 331 329 330 343 343 30 61 42 131 134
339 333 335 331 325 317 313 301 285 267 255 255 262 274 281 285 270 242 232 235 235 237 221 195 175 153 205 134 180 191 206 151 218 221 38 360 317 326 311 298 227 158 162 139 135
340 340 338 335 325 320 320 321 297 256 258 264 268 270 262 184 222 186 207 209 240 226 212 175 151 177 178 176 188 159 199 199 127 127 136 299 322 300 299 259 237 180 157 143 149
345 345 346 342 345 347 6 39 36 49 96 289 277 242 171 210 246 235 317 300 228 208 208 170 171 164 172 162 174 129 173 202 145 152 176 126 270 278 296 282 306 114 136 156 170
348 350 354 357 7 30 38 43 39 32 22 12 330 194 178 253 257 272 282 307 187 193 198 193 184 195 132 154 168 164 156 129 116 192 186 168 219 254 279 261 111 130 140 160 185
350 354 1 11 19 47 38 29 24 13 48 64 118 170 186 232 225 42 273 289 192 194 195 192 196 183 137 133 189 159 175 87 182 187 190 175 191 227 227 296 170 125 157 167 163
351 353 358 12 23 19 5 11 352 323 290 320 203 167 253 295 293 284 330 11 180 196 210 192 216 196 157 145 80 121 117 146 199 173 207 158 222 210 196 239 227 210 228 280 279
348 350 353 355 359 352 350 338 346 11 170 156 138 171 272 329 106 171 279 38 349 201 214 209 197 182 169 119 102 216 161 178 178 198 155 175 205 224 214 188 243 225 235 226 272
347 345 346 345 341 339 332 321 329 27 62 117 214 304 300 302 333 136 173 137 270 157 220 184 181 152 142 162 179 187 179 181 185 187 180 184 222 250 229 196 220 226 240 257 278
346 343 337 337 347 345 346 36 28 351 42 284 228 227 229 312 2 72 90 126 191 186 169 173 157 192 184 110 172 126 120 180 210 175 149 207 208 249 255 286 268 239 224 241 265
343 340 329 329 353 344 24 87 109 198 329 329 260 64 38 329 101 57 178 41 218 125 127 148 191 152 127 153 93 156 135 184 26 230 173 183 228 233 246 231 218 226 221 218 167
338 336 327 322 331 35 60 116 97 89 334 317 330 30 352 346 17 31 39 282 303 125 178 138 139 138 166 145 130 76 181 165 154 78 85 111 285 221 252 244 260 238 210 181 177
337 330 324 320 172 81 102 228 332 350 79 4 326 89 138 151 104 153 209 238 155 160 140 88 145 144 159 150 131 135 198 175 181 150 201 169 263 250 208 230 225 216 186 186 173
337 327 315 281 295 143 163 242 329 331 38 11 346 306 229 56 190 175 244 159 134 115 117 78 104 154 138 153 158 220 171 160 137 133 131 213 180 268 199 232 232 216 199 176 163
340 331 291 240 228 176 286 275 142 48 31 357 315 311 26 84 75 0 34 49 102 66 57 59 21 55 63 56 102 134 83 46 53 74 257 198 173 268 208 203 202 169 191 167 161
345 338 190 220 288 180 326 74 37 65 237 357 24 167 14 5 359 77 69 96 119 108 78 41 3 336 9 108 18 70 87 41 95 217 221 163 172 241 247 241 198 177 179 173 163
352 82 159 239 233 287 125 51 70 263 290 257 221 111 59 9 8 5 108 97 50 95 109 142 173 208 353 53 158 156 169 152 186 204 228 182 228 242 239 260 202 176 169 157 156
3 120 113 302 230 281 73 52 173 207 196 226 226 222 120 97 110 11 5 58 133 164 110 134 302 133 214 118 85 154 224 174 110 41 72 220 284 308 56 138 153 155 151 162 167
118 76 103 169 237 359 73 137 196 182 253 255 309 153 119 146 132 171 206 245 169 178 135 172 115 234 153 142 244 241 188 122 357 145 239 265 272 239 228 190 163 160 163 167 165
63 56 83 180 245 34 102 194 302 217 234 272 322 73 144 145 165 185 186 181 191 167 167 152 113 153 152 214 183 164 198 158 130 154 186 296 259 224 223 185 167 162 168 176 175
2 54 15 117 356 29 132 194 170 269 232 297 279 298 303 99 98 112 157 167 220 153 168 197 124 146 188 264 233 240 215 177 144 241 204 149 276 314 248 172 161 167 178 180 170
70 252 41 314 78 345 298 229 252 72 224 320 288 296 335 103 101 107 131 126 38 123 162 177 128 91 71 357 279 222 217 171 115 74 206 150 259 354 102 145 172 163 179 167 153
72 40 334 36 280 332 357 223 224 176 281 315 291 335 344 42 45 139 113 38 34 98 86 85 127 163 185 201 144 198 194 192 148 172 205 223 281 272 193 172 181 183 180 165 169
33 32 62 324 342 342 312 308 73 232 181 33 314 275 303 239 104 120 111 42 13 70 77 109 173 126 254 137 138 215 191 181 194 214 203 248 219 224 210 191 191 190 170 159 170
95 42 349 288 291 291 0 344 73 337 43 335 294 327 267 250 204 197 136 179 194 117 101 29 158 95 302 254 62 291 247 220 221 217 240 200 266 228 246 236 192 192 172 179 186
47 64 102 307 328 294 24 347 358 337 207 87 338 338 296 102 302 357 193 176 161 155 150 113 129 92 264 18 360 299 229 211 212 205 215 210 227 222 231 193 201 195 187 188 188